Total_Precipitation_Accumulation
0.17 0.19 0.22 0.30 0.38 0.59 0.78 0.66 0.45 0.35 0.30 0.26 0.17 0.12 0.10 0.09 0.08 0.08 0.07 0.08 0.13 0.19 0.16 0.15 0.19 0.19 0.25 0.19 0.19 0.16 0.09 0.04 0.09 0.03 0.01 0.01 0.00 0.00 0.00 0.00 0.00 0.00 0.00
0.12 0.09 0.11 0.20 0.32 0.36 0.38 0.43 0.35 0.21 0.14 0.15 0.12 0.08 0.08 0.08 0.07 0.06 0.06 0.07 0.06 0.08 0.07 0.05 0.11 0.17 0.22 0.20 0.19 0.18 0.12 0.06 0.05 0.02 0.01 0.01 0.00 0.00 0.00 0.00 0.00 0.00 0.00
0.04 0.06 0.07 0.08 0.12 0.12 0.09 0.08 0.10 0.10 0.07 0.07 0.08 0.08 0.08 0.07 0.07 0.05 0.06 0.07 0.06 0.05 0.05 0.05 0.07 0.12 0.25 0.28 0.19 0.16 0.14 0.11 0.07 0.02 0.00 0.00 0.00 0.00 0.00 0.00 0.00 0.00 0.00
0.02 0.04 0.05 0.05 0.04 0.04 0.03 0.02 0.03 0.03 0.03 0.05 0.08 0.10 0.08 0.08 0.10 0.09 0.11 0.13 0.10 0.08 0.07 0.07 0.06 0.08 0.13 0.23 0.21 0.17 0.16 0.11 0.11 0.05 0.01 0.00 0.00 0.00 0.00 0.00 0.00 0.00 0.00
0.02 0.02 0.03 0.04 0.04 0.03 0.03 0.02 0.02 0.01 0.02 0.05 0.08 0.15 0.17 0.16 0.15 0.20 0.20 0.25 0.20 0.14 0.11 0.13 0.11 0.15 0.30 0.33 0.27 0.22 0.20 0.13 0.12 0.08 0.02 0.00 0.00 0.00 0.00 0.00 0.00 0.00 0.00
0.04 0.04 0.06 0.06 0.04 0.03 0.02 0.02 0.01 0.01 0.02 0.03 0.07 0.14 0.20 0.17 0.42 0.45 0.32 0.30 0.26 0.17 0.12 0.13 0.11 0.13 0.28 0.47 0.48 0.40 0.35 0.33 0.23 0.12 0.04 0.01 0.00 0.00 0.00 0.00 0.00 0.00 0.00
0.06 0.05 0.06 0.05 0.03 0.03 0.02 0.01 0.01 0.02 0.03 0.03 0.05 0.05 0.09 0.19 0.24 0.21 0.18 0.16 0.22 0.19 0.13 0.10 0.07 0.06 0.09 0.15 0.21 0.24 0.37 0.54 0.54 0.36 0.13 0.03 0.01 0.00 0.00 0.00 0.00 0.00 0.00
0.06 0.04 0.06 0.06 0.05 0.04 0.02 0.01 0.00 0.01 0.02 0.03 0.04 0.03 0.04 0.07 0.06 0.08 0.10 0.08 0.13 0.14 0.12 0.09 0.06 0.05 0.04 0.06 0.10 0.17 0.23 0.34 0.44 0.45 0.27 0.12 0.05 0.01 0.00 0.00 0.00 0.00 0.00
0.08 0.07 0.09 0.10 0.09 0.07 0.04 0.03 0.02 0.01 0.01 0.02 0.03 0.09 0.10 0.07 0.04 0.03 0.05 0.08 0.10 0.09 0.07 0.06 0.04 0.05 0.05 0.08 0.09 0.10 0.16 0.19 0.22 0.24 0.30 0.29 0.17 0.03 0.00 0.00 0.00 0.00 0.00
0.11 0.13 0.16 0.16 0.16 0.13 0.10 0.08 0.07 0.05 0.02 0.01 0.01 0.06 0.10 0.08 0.04 0.02 0.02 0.07 0.09 0.08 0.07 0.07 0.06 0.06 0.12 0.13 0.16 0.16 0.21 0.14 0.12 0.12 0.14 0.16 0.12 0.03 0.00 0.00 0.00 0.00 0.00
0.08 0.12 0.17 0.20 0.23 0.24 0.22 0.19 0.18 0.13 0.07 0.03 0.04 0.05 0.05 0.07 0.06 0.02 0.01 0.04 0.06 0.06 0.06 0.06 0.05 0.04 0.10 0.17 0.20 0.26 0.30 0.21 0.12 0.10 0.10 0.09 0.05 0.02 0.00 0.00 0.00 0.00 0.00
0.05 0.09 0.15 0.22 0.26 0.29 0.30 0.25 0.19 0.15 0.10 0.08 0.09 0.11 0.12 0.09 0.09 0.07 0.02 0.03 0.04 0.04 0.05 0.07 0.06 0.07 0.07 0.10 0.13 0.21 0.39 0.36 0.17 0.09 0.08 0.07 0.04 0.01 0.00 0.00 0.00 0.00 0.00
0.02 0.05 0.10 0.14 0.17 0.18 0.18 0.20 0.19 0.17 0.10 0.08 0.09 0.14 0.15 0.12 0.12 0.13 0.04 0.01 0.01 0.02 0.03 0.08 0.11 0.11 0.09 0.06 0.08 0.15 0.31 0.42 0.29 0.15 0.07 0.05 0.05 0.03 0.01 0.00 0.00 0.00 0.00
0.01 0.02 0.04 0.05 0.05 0.06 0.10 0.14 0.15 0.16 0.15 0.16 0.16 0.19 0.24 0.19 0.14 0.12 0.05 0.01 0.00 0.01 0.01 0.03 0.07 0.11 0.11 0.09 0.08 0.11 0.21 0.34 0.34 0.23 0.13 0.07 0.06 0.04 0.02 0.00 0.00 0.00 0.00
0.01 0.01 0.01 0.03 0.04 0.05 0.08 0.11 0.12 0.15 0.14 0.16 0.21 0.25 0.24 0.20 0.17 0.21 0.16 0.08 0.02 0.01 0.00 0.02 0.03 0.04 0.06 0.09 0.09 0.09 0.14 0.24 0.27 0.22 0.17 0.10 0.06 0.05 0.03 0.01 0.00 0.00 0.00
0.06 0.02 0.02 0.02 0.04 0.06 0.07 0.06 0.04 0.05 0.03 0.03 0.05 0.09 0.12 0.11 0.11 0.11 0.14 0.16 0.11 0.04 0.01 0.03 0.03 0.03 0.04 0.05 0.06 0.08 0.10 0.14 0.19 0.19 0.17 0.13 0.08 0.06 0.04 0.02 0.00 0.00 0.00
0.14 0.11 0.06 0.04 0.04 0.04 0.04 0.03 0.02 0.01 0.00 0.01 0.01 0.02 0.04 0.04 0.04 0.03 0.03 0.06 0.10 0.07 0.04 0.03 0.02 0.02 0.02 0.03 0.04 0.05 0.06 0.10 0.14 0.15 0.14 0.12 0.09 0.06 0.04 0.02 0.01 0.00 0.00
0.03 0.03 0.04 0.07 0.04 0.03 0.05 0.09 0.10 0.07 0.05 0.03 0.01 0.00 0.01 0.01 0.02 0.01 0.01 0.01 0.03 0.04 0.05 0.06 0.05 0.03 0.02 0.02 0.02 0.03 0.04 0.06 0.09 0.11 0.11 0.09 0.07 0.05 0.03 0.01 0.00 0.00 0.00
0.00 0.01 0.07 0.09 0.04 0.02 0.06 0.13 0.13 0.10 0.09 0.06 0.02 0.00 0.00 0.00 0.00 0.01 0.01 0.01 0.02 0.02 0.04 0.09 0.10 0.08 0.06 0.03 0.02 0.02 0.02 0.03 0.04 0.05 0.06 0.06 0.05 0.03 0.01 0.01 0.00 0.00 0.00
0.02 0.01 0.08 0.13 0.05 0.02 0.02 0.03 0.03 0.04 0.03 0.02 0.01 0.01 0.00 0.00 0.01 0.01 0.01 0.01 0.02 0.02 0.03 0.06 0.08 0.10 0.09 0.07 0.06 0.04 0.03 0.03 0.03 0.02 0.03 0.03 0.02 0.02 0.01 0.00 0.00 0.00 0.00
0.05 0.02 0.02 0.12 0.12 0.05 0.03 0.02 0.02 0.04 0.03 0.03 0.02 0.01 0.00 0.01 0.02 0.02 0.01 0.01 0.00 0.01 0.02 0.03 0.05 0.09 0.08 0.07 0.07 0.06 0.04 0.03 0.03 0.03 0.03 0.03 0.02 0.02 0.02 0.01 0.00 0.00 0.00
0.02 0.02 0.02 0.09 0.13 0.08 0.03 0.02 0.01 0.02 0.02 0.03 0.02 0.00 0.00 0.01 0.02 0.03 0.02 0.02 0.02 0.02 0.02 0.02 0.05 0.08 0.09 0.07 0.06 0.06 0.06 0.05 0.03 0.03 0.04 0.05 0.04 0.04 0.03 0.02 0.02 0.01 0.01
0.01 0.01 0.02 0.05 0.05 0.02 0.02 0.02 0.02 0.02 0.01 0.01 0.01 0.00 0.00 0.00 0.00 0.01 0.02 0.04 0.07 0.08 0.06 0.04 0.06 0.09 0.12 0.11 0.10 0.10 0.09 0.08 0.06 0.04 0.04 0.05 0.05 0.05 0.04 0.03 0.03 0.02 0.02
0.01 0.00 0.01 0.02 0.02 0.02 0.03 0.03 0.02 0.02 0.03 0.01 0.01 0.00 0.00 0.00 0.00 0.01 0.01 0.03 0.07 0.08 0.06 0.06 0.06 0.07 0.08 0.11 0.13 0.12 0.11 0.10 0.07 0.05 0.04 0.04 0.04 0.04 0.03 0.03 0.03 0.02 0.02
0.02 0.01 0.01 0.01 0.02 0.03 0.02 0.03 0.03 0.03 0.04 0.04 0.02 0.01 0.00 0.00 0.01 0.01 0.01 0.02 0.04 0.04 0.04 0.04 0.06 0.09 0.09 0.09 0.10 0.12 0.16 0.15 0.10 0.06 0.05 0.04 0.04 0.04 0.03 0.04 0.04 0.04 0.03
0.02 0.01 0.01 0.02 0.03 0.03 0.03 0.03 0.03 0.03 0.03 0.04 0.03 0.02 0.02 0.02 0.02 0.01 0.01 0.01 0.02 0.03 0.05 0.06 0.07 0.10 0.12 0.11 0.10 0.09 0.09 0.09 0.09 0.08 0.06 0.05 0.04 0.04 0.03 0.03 0.03 0.03 0.03